Location: San Antonio
(29.4240°N, 98.4930°W)
Time: 12:06:05
(UTC-05:00)

ISS - All Passes

Search period start: 27 April 2015 00:00
Search period end: 07 May 2015 00:00
Orbit: 395 x 402 km, 51.6° (Epoch: 27 April)

Date Brightness Start Highest point End Pass type
(mag) Time Alt. Az. Time Alt. Az. Time Alt. Az.
27 Apr - 10:31:46 10° S 10:34:08 19° SE 10:36:36 10° ENE daylight
27 Apr - 12:07:42 10° W 12:10:24 23° NW 12:13:05 10° NNE daylight
27 Apr - 18:39:52 10° N 18:42:04 17° NE 18:44:20 10° E daylight
27 Apr - 20:15:35 10° WNW 20:18:29 29° SW 20:21:20 10° SSE daylight
28 Apr - 11:12:59 10° WSW 11:16:09 53° NW 11:19:20 10° NE daylight
28 Apr - 19:21:08 10° NW 19:24:22 80° SW 19:27:37 10° SE daylight
29 Apr - 10:18:48 10° SSW 10:21:58 56° SE 10:25:10 10° NE daylight
29 Apr - 11:57:28 10° NW 11:58:36 11° NNW 11:59:38 10° NNW daylight
29 Apr - 18:27:05 10° NNW 18:30:09 39° NE 18:33:13 10° ESE daylight
29 Apr - 20:05:10 10° WSW 20:06:15 11° SW 20:07:10 10° SW daylight
30 Apr - 09:25:17 10° S 09:27:50 22° SE 09:30:25 10° ENE daylight
30 Apr - 11:01:33 10° W 11:04:07 21° NW 11:06:40 10° NNE daylight
30 Apr - 17:33:24 10° N 17:35:45 19° NE 17:38:10 10° E daylight
30 Apr - 19:09:19 10° WNW 19:12:06 26° SW 19:14:51 10° S daylight
01 May - 10:06:36 10° WSW 10:09:43 46° NW 10:12:52 10° NNE daylight
01 May - 18:14:40 10° NW 18:17:54 70° SW 18:21:07 10° SE daylight
02 May - 09:12:13 10° SW 09:15:24 65° SE 09:18:37 10° NE daylight
02 May - 10:51:30 10° NW 10:52:05 10° NNW 10:52:33 10° NNW daylight
02 May - 17:20:26 10° NNW 17:23:34 44° NE 17:26:40 10° ESE daylight
03 May - 08:18:28 10° S 08:21:08 24° SE 08:23:52 10° ENE daylight
03 May - 09:55:01 10° W 09:57:27 19° NW 09:59:53 10° N daylight
03 May - 16:26:35 10° NNW 16:29:04 20° NE 16:31:35 10° E daylight
03 May - 18:02:42 10° WNW 18:05:22 23° SW 18:08:00 10° S daylight
04 May - 07:26:27 10° SE 07:26:52 10° SE 07:27:27 10° ESE daylight
04 May - 08:59:51 10° WSW 09:02:56 41° NW 09:06:01 10° NNE daylight
04 May - 15:33:38 10° NNE 15:34:23 11° NNE 15:35:17 10° NE daylight
04 May - 17:07:51 10° NW 17:11:03 61° SW 17:14:14 10° SSE daylight
05 May - 08:05:17 10° SW 08:08:29 74° SE 08:11:42 10° NE daylight
05 May - 16:13:27 10° NNW 16:16:36 49° NE 16:19:45 10° ESE daylight
06 May - 07:11:19 10° S 07:14:05 27° SE 07:16:54 10° ENE daylight
06 May - 08:48:06 10° W 08:50:26 18° NW 08:52:43 10° N daylight
06 May - 15:19:24 10° NNW 15:22:00 22° NE 15:24:37 10° E daylight
06 May - 16:55:43 10° WNW 16:58:16 21° SW 17:00:45 10° S daylight
